Location: Chervonnoye
(48.6000°N, 34.4000°E)
Time: 21:13:34
(UTC+00:00)

CAS-4B - Pass Details

Date: 09 December 2021
Orbit: 529 x 538 km, 43.0° (Epoch: 23 January)

Event Time Altitude Azimuth Distance (km) Brightness Sun altitude
Rises 16:02:32 0° 223° (SW) 2,674 ? -21.4°
Reaches altitude 10° 16:05:09 10° 207° (SSW) 1,784 ? -21.8°
Enters shadow 16:07:51 21° 166° (SSE) 1,238 ? -22.3°
